Regional Weather Roundup
Issued by NWS Goodland, KS

Home | Current Version | Previous Version | Text Only | Print | Product List | Glossary On
Versions: 1 2 3 4 5 6 7 8 9 10 11 12 13 14 15 16 17 18 19 20 21 22 23 24 25 26 27 28 29 30 31 32 33 34 35 36 37 38 39 40 41 42 43 44 45 46 47 48 49 50
000
ASUS43 KGLD 020108
RWRGLD

GOODLAND FORECAST AREA HOURLY WEATHER ROUNDUP
NATIONAL WEATHER SERVICE GOODLAND KS
600 PM MST SUN MAR 01 2015

...OFFICIAL OBSERVATIONS...

CITY           SKY/WX    TMP DP  RH WIND       PRES   REMARKS
GOODLAND KS    MOCLDY    31  20  63 E5        30.29R
HILL CITY KS   PTCLDY    31  20  63 S3        30.35R
IMPERIAL NEB     N/A     29  12  49 NE3       30.30R
MCCOOK NEB     CLOUDY    35  11  36 N5        30.33R
AKRON CO       MOCLDY    26  17  68 NW5       30.24S
BURLINGTON CO  CLOUDY    30  18  60 E6        30.27R
LIMON CO       CLOUDY    24  18  77 VRB3      30.23S
$$

...UNOFFICIAL OBSERVATIONS...

CITY           SKY/WX    TMP DP  RH WIND       PRES   REMARKS
COLBY KS       MOCLDY    32  21  64 E5        30.32R
GOVE KS          N/A     30  32 100 MISG        N/A
LENORA KS        N/A     33  32  96 CALM        N/A
NORTON KS      CLEAR     34   9  35 E3        30.33S
KIT CARSON CO    N/A     29  21  71 MISG        N/A
YUMA CO          N/A     30  15  54 CALM        N/A
$$


USA.gov is the U.S. government's official web portal to all federal, state and local government web resources and services.